Location: Chiroubles
(46.1812°N, 4.6660°E)
Time: 15:54:10
(UTC+00:00)

Cosmos 1633 Rocket - Pass Details

Date: 15 August 2020
Orbit: 606 x 624 km, 82.5° (Epoch: 23 September)

Event Time Altitude Azimuth Distance (km) Brightness Sun altitude
Rises 19:30:21 0° 175° (S) 2,893 6.2 -7.2°
Reaches altitude 10° 19:32:36 10° 171° (S) 1,990 5.3 -7.6°
Maximum altitude 19:36:54 54° 94° (E) 763 3.2 -8.2°
Drops below altitude 10° 19:41:13 10° 18° (NNE) 1,999 5.8 -8.9°
Sets 19:43:29 0° 14° (NNE) 2,908 6.7 -9.2°
